Location: Brompton
(51.4000°N, 0.5333°E)
Time: 14:26:42
(UTC+00:00)

Cosmos 2218 Rocket - Pass Details

Date: 11 May 2021
Orbit: 957 x 1005 km, 82.9° (Epoch: 23 June)

Event Time Altitude Azimuth Distance (km) Brightness Sun altitude
Rises 22:06:04 0° 352° (N) 3,685 8.4 -16.6°
Reaches altitude 10° 22:08:41 10° 358° (N) 2,741 7.4 -16.7°
Maximum altitude 22:14:46 50° 73° (ENE) 1,248 4.5 -17.1°
Enters shadow 22:18:16 25° 136° (SE) 1,883 5.0 -17.4°
